Location: Unspecified
(0.0000°N, 0.0000°E)
Time: 13:10:57
(UTC+00:00)

JUGNU - Pass Details

Date: 20 February 2020
Orbit: 836 x 864 km, 20.0° (Epoch: 01 April)

Event Time Altitude Azimuth Distance (km) Brightness Sun altitude
Rises 20:01:02 0° 293° (WNW) 3,367 ? -26.3°
Reaches altitude 10° 20:03:35 10° 294° (WNW) 2,432 ? -26.9°
Enters shadow 20:09:03 76° 333° (NNW) 857 ? -28.3°
